EW5345 Weather Reports


time (UTC)temp
F
wind
direction
speed
knots
gust
knots
rain 1hr
in
rain 24hr
in
rain mn
in
humidity
%
barometer
mb
20260505210051 59 51 1.7 4.3 0.16 0.71 0.63 91 1011.1
20260505204600 60 32 3.5 7.8 0.14 0.71 0.61 91 1011.2
20260505203052 60 88 2.6 7.8 0.09 0.65 0.55 90 1011.9
20260505201549 61 53 4.3 6.1 0.05 0.61 0.51 88 1011.2
20260505200049 61 43 1.7 4.3 0.01 0.56 0.47 86 1011.5
20260505194547 62 44 0.9 4.3 0.00 0.56 0.46 84 1011.4
20260505193046 62 43 1.7 3.5 0.00 0.56 0.46 82 1011.4
20260505191546 62 173 0.0 1.7 0.00 0.56 0.46 81 1011.1
20260505190044 62 173 0.0 3.5 0.00 0.56 0.46 80 1011.2
20260505184545 62 173 0.9 2.6 0.00 0.56 0.46 79 1011.3
20260505183044 63 173 0.9 2.6 0.00 0.56 0.46 80 1011.2
20260505181605 63 173 0.9 3.5 0.00 0.56 0.46 80 1011.1
20260505180056 63 173 0.9 3.5 0.00 0.56 0.46 80 1011.2
20260505174545 63 168 1.7 6.1 0.00 0.56 0.46 78 1011.2
20260505173041 64 166 3.5 6.1 0.00 0.56 0.46 75 1011.2
20260505171543 65 153 2.6 7.0 0.00 0.56 0.46 72 1011.1
20260505170040 66 119 2.6 7.0 0.00 0.56 0.46 71 1011.1
20260505164540 66 156 3.5 7.8 0.00 0.56 0.46 75 1011.3
20260505163038 66 142 3.5 7.8 0.00 0.56 0.46 75 1011.2
20260505161539 67 150 2.6 7.8 0.00 0.56 0.46 68 1011.3
20260505153040 68 180 3.5 7.8 0.00 0.57 0.46 66 1011.5
20260505151532 68 159 5.2 10.4 0.00 0.57 0.46 63 1011.4
20260505124519 67 161 4.3 10.4 0.00 0.59 0.46 74 1012.2
20260505123023 67 105 4.3 8.7 0.00 0.59 0.46 75 1012.2
20260505121517 67 197 5.2 13.0 0.00 0.59 0.46 75 1012.1
20260505120015 67 201 6.1 12.2 0.00 0.59 0.46 74 1012.1
20260505114515 66 154 6.1 10.4 0.00 0.59 0.46 75 1012.2
20260505113015 66 157 4.3 12.2 0.00 0.59 0.46 74 1012.2
20260505111514 66 197 3.5 9.6 0.00 0.59 0.46 77 1012.2
20260505101506 66 139 5.2 9.6 0.00 0.59 0.46 78 1012.3
20260505100008 65 153 2.6 8.7 0.00 0.59 0.46 80 1012.3
20260505094504 64 153 2.6 9.6 0.00 0.60 0.46 83 1012.4
20260505093006 65 146 2.6 7.0 0.00 0.60 0.46 82 1012.4
20260505091502 65 121 4.3 8.7 0.00 0.60 0.46 81 1012.4
20260505090100 66 215 3.5 6.1 0.00 0.60 0.46 80 1012.1
20260505090002 66 146 3.5 6.1 0.00 0.60 0.46 80 1012.1
20260505084602 66 135 3.5 7.0 0.00 0.60 0.46 82 1012.0
20260505083105 65 109 3.5 7.8 0.00 0.60 0.46 82 1011.9
20260505081551 65 107 4.3 7.8 0.00 0.60 0.46 85 1011.9
20260505080049 63 86 0.9 3.5 0.00 0.60 0.46 88 1012.0
20260505074545 63 62 2.6 7.0 0.00 0.60 0.46 87 1012.0
20260505073048 63 23 2.6 7.0 0.00 0.60 0.46 89 1011.8
20260505071538 61 44 3.5 7.8 0.00 0.60 0.46 91 1011.8
20260505070035 60 50 5.2 8.7 0.00 0.60 0.46 91 1011.6
20260505064534 59 350 0.9 3.5 0.00 0.60 0.46 91 1011.7
20260505063029 59 55 0.9 1.7 0.00 0.60 0.46 92 1011.7
20260505061530 59 55 0.0 3.5 0.00 0.60 0.46 92 1011.8
20260505060129 59 55 0.9 4.3 0.00 0.60 0.46 92 1011.7
20260505054544 58 55 0.9 1.7 0.00 0.66 0.46 92 1011.6
20260505053126 58 55 0.0 4.3 0.00 0.66 0.46 92 1011.5
20260505051535 58 59 2.6 4.3 0.00 0.66 0.46 92 1011.3
20260505041518 58 43 1.7 8.7 0.00 0.68 0.46 92 1010.9
20260505040017 58 268 0.9 1.7 0.00 0.68 0.46 92 1011.2
20260505034525 58 325 1.7 4.3 0.00 0.68 0.46 91 1011.2
20260505033015 58 36 2.6 5.2 0.00 0.68 0.46 91 1011.0
20260505031514 58 213 1.7 8.7 0.00 0.68 0.46 92 1011.1
20260505030032 58 230 3.5 7.8 0.00 0.68 0.46 91 1011.2
20260505024516 58 96 0.9 9.6 0.00 0.68 0.46 92 1010.9
20260505023010 58 52 4.3 11.3 0.00 0.68 0.46 92 1010.9
20260505021509 57 21 4.3 13.0 0.00 0.68 0.46 92 1011.2
20260505020006 57 64 1.7 4.3 0.00 0.68 0.46 92 1011.4
20260505014510 57 78 3.5 7.8 0.00 0.68 0.46 92 1011.4
20260505013012 57 9 1.7 4.3 0.00 0.68 0.46 92 1011.5
20260505011502 56 59 5.2 10.4 0.00 0.68 0.46 92 1011.7
20260505010002 56 176 1.7 5.2 0.02 0.68 0.46 92 1012.1
20260505004504 56 9 2.6 10.4 0.04 0.68 0.46 92 1011.9
20260505003101 56 54 5.2 9.6 0.09 0.68 0.46 93 1012.0
20260505001558 56 45 0.9 3.5 0.21 0.68 0.46 93 1012.3
20260505000111 56 360 0.0 6.1 0.26 0.66 0.45 92 1012.5
20260504234556 56 49 5.2 13.9 0.30 0.64 0.43 92 1012.5
20260504233055 56 64 11.3 20.9 0.31 0.56 0.36 92 1012.3
20260504231620 56 61 7.8 21.7 0.23 0.46 0.25 92 1012.5
20260504230050 56 50 7.8 14.8 0.18 0.40 0.19 92 1012.7
20260504224546 57 73 8.7 20.0 0.17 0.34 0.13 91 1012.9
20260504223046 58 61 7.8 18.2 0.13 0.27 0.06 91 1012.8
20260504221601 58 68 13.0 23.5 0.10 0.24 0.02 90 1012.2
20260504220035 58 64 12.2 24.3 0.09 0.22 0.01 89 1012.6
20260504214536 58 84 13.9 20.9 0.04 0.17 0.17 88 1013.4
20260504213038 59 49 8.7 18.2 0.00 0.13 0.13 86 1013.7